Hourly Weather Barsuki (Ilya)

Today, 18 April, Sunday

Time Temperature Precipitation Wind Pressure Humidity
00:00 +8°C° 0.1 mm 3 mps 747 mmHg 93%
01:00 +8°C° 0.1 mm 3 mps 747 mmHg 92%
02:00 +8°C° 0.1 mm 3 mps 747 mmHg 92%
03:00 +8°C° 0 mm 3 mps 747 mmHg 93%
04:00 +7°C° 0 mm 3 mps 747 mmHg 94%
05:00 +7°C° 0 mm 3 mps 747 mmHg 95%
06:00 +6°C° 0 mm 4 mps 747 mmHg 90%
07:00 +7°C° 0 mm 4 mps 747 mmHg 85%
08:00 +8°C° 0 mm 4 mps 747 mmHg 79%
09:00 +9°C° 0 mm 5 mps 747 mmHg 73%
10:00 +12°C° 0 mm 5 mps 747 mmHg 66%
11:00 +13°C° 0 mm 5 mps 747 mmHg 60%
12:00 +14°C° 0 mm 5 mps 748 mmHg 57%
13:00 +14°C° 0 mm 5 mps 748 mmHg 54%
14:00 +15°C° 0 mm 5 mps 748 mmHg 51%
15:00 +14°C° 0 mm 5 mps 748 mmHg 53%
16:00 +14°C° 0 mm 5 mps 748 mmHg 54%
17:00 +14°C° 0 mm 4 mps 748 mmHg 55%
18:00 +12°C° 0 mm 3 mps 748 mmHg 64%
19:00 +10°C° 0 mm 3 mps 749 mmHg 73%
20:00 +8°C° 0 mm 2 mps 749 mmHg 81%
21:00 +8°C° 0 mm 2 mps 749 mmHg 83%
22:00 +8°C° 0 mm 1 mps 749 mmHg 85%
23:00 +8°C° 0 mm 1 mps 749 mmHg 87%

Tomorrow, 19 April, Monday

Time Temperature Precipitation Wind Pressure Humidity
00:00 +7°C° 0 mm 1 mps 749 mmHg 89%
01:00 +6°C° 0 mm 2 mps 749 mmHg 90%
02:00 +5°C° 0 mm 2 mps 750 mmHg 92%
03:00 +5°C° 0 mm 2 mps 750 mmHg 92%
04:00 +4°C° 0 mm 3 mps 750 mmHg 92%
05:00 +3°C° 0 mm 3 mps 750 mmHg 93%
06:00 +4°C° 0 mm 3 mps 750 mmHg 88%
07:00 +5°C° 0 mm 3 mps 750 mmHg 84%
08:00 +6°C° 0 mm 4 mps 750 mmHg 79%
09:00 +6°C° 0 mm 4 mps 750 mmHg 76%
10:00 +6°C° 0 mm 4 mps 750 mmHg 73%
11:00 +7°C° 0 mm 4 mps 750 mmHg 69%
12:00 +7°C° 0 mm 4 mps 750 mmHg 67%
13:00 +8°C° 0 mm 4 mps 750 mmHg 65%
14:00 +8°C° 0 mm 4 mps 750 mmHg 63%
15:00 +10°C° 0 mm 4 mps 749 mmHg 65%
16:00 +10°C° 0 mm 4 mps 749 mmHg 67%
17:00 +10°C° 0 mm 4 mps 749 mmHg 68%
18:00 +9°C° 0 mm 3 mps 749 mmHg 73%
19:00 +8°C° 0 mm 3 mps 749 mmHg 77%
20:00 +7°C° 0 mm 3 mps 749 mmHg 82%
21:00 +7°C° 0 mm 3 mps 749 mmHg 85%
22:00 +5°C° 0 mm 3 mps 749 mmHg 88%
23:00 +4°C° 0 mm 3 mps 749 mmHg 92%

Day after tomorrow, 20 April, Tuesday

Time Temperature Precipitation Wind Pressure Humidity
00:00 +4°C° 0 mm 3 mps 748 mmHg 92%
01:00 +4°C° 0 mm 3 mps 748 mmHg 93%
02:00 +5°C° 0 mm 2 mps 748 mmHg 93%
03:00 +4°C° 0 mm 3 mps 747 mmHg 92%
04:00 +4°C° 0 mm 3 mps 747 mmHg 91%
05:00 +4°C° 0 mm 3 mps 747 mmHg 89%
06:00 +4°C° 0 mm 3 mps 747 mmHg 87%
07:00 +4°C° 0 mm 3 mps 746 mmHg 84%
08:00 +4°C° 0 mm 4 mps 746 mmHg 82%
09:00 +4°C° 0 mm 4 mps 746 mmHg 78%
10:00 +5°C° 0 mm 4 mps 746 mmHg 73%
11:00 +5°C° 0 mm 4 mps 745 mmHg 69%
12:00 +5°C° 0 mm 4 mps 745 mmHg 71%
13:00 +5°C° 0 mm 4 mps 745 mmHg 73%
14:00 +5°C° 0 mm 4 mps 744 mmHg 75%
15:00 +5°C° 0 mm 3 mps 744 mmHg 75%
16:00 +5°C° 0 mm 3 mps 744 mmHg 74%
17:00 +5°C° 0 mm 3 mps 743 mmHg 74%
18:00 +5°C° 0 mm 3 mps 743 mmHg 76%
19:00 +5°C° 0 mm 2 mps 743 mmHg 78%
20:00 +5°C° 0 mm 2 mps 743 mmHg 80%
21:00 +5°C° 0 mm 2 mps 742 mmHg 82%
22:00 +5°C° 0 mm 2 mps 742 mmHg 84%
23:00 +3°C° 0 mm 3 mps 741 mmHg 85%

21 April, Wednesday

Time Temperature Precipitation Wind Pressure Humidity
00:00 +3°C° 0 mm 3 mps 741 mmHg 88%
01:00 +3°C° 0 mm 3 mps 740 mmHg 90%
02:00 +3°C° 0 mm 3 mps 740 mmHg 92%
03:00 +3°C° 0 mm 3 mps 739 mmHg 92%
04:00 +3°C° 0 mm 4 mps 739 mmHg 91%
05:00 +3°C° 0 mm 4 mps 739 mmHg 91%
06:00 +3°C° 0 mm 4 mps 739 mmHg 87%
07:00 +3°C° 0 mm 5 mps 738 mmHg 83%
08:00 +3°C° 0 mm 5 mps 738 mmHg 79%
09:00 +5°C° 0 mm 5 mps 738 mmHg 74%
10:00 +6°C° 0 mm 5 mps 738 mmHg 68%
11:00 +7°C° 0 mm 6 mps 738 mmHg 63%
12:00 +7°C° 0 mm 5 mps 738 mmHg 61%
13:00 +7°C° 0 mm 5 mps 738 mmHg 59%
14:00 +8°C° 0 mm 5 mps 738 mmHg 56%
15:00 +8°C° 0 mm 5 mps 739 mmHg 57%
16:00 +8°C° 0 mm 4 mps 739 mmHg 58%
17:00 +9°C° 0 mm 3 mps 739 mmHg 59%
18:00 +8°C° 0 mm 3 mps 740 mmHg 64%
19:00 +7°C° 0 mm 2 mps 740 mmHg 70%
20:00 +6°C° 0 mm 2 mps 740 mmHg 75%
21:00 +5°C° 0 mm 2 mps 740 mmHg 79%
22:00 +5°C° 0 mm 2 mps 741 mmHg 82%
23:00 +4°C° 0 mm 2 mps 741 mmHg 86%

22 April, Thursday

Time Temperature Precipitation Wind Pressure Humidity
00:00 +4°C° 0 mm 2 mps 741 mmHg 88%
01:00 +4°C° 0 mm 2 mps 742 mmHg 90%
02:00 +4°C° 0 mm 2 mps 742 mmHg 91%
03:00 +4°C° 0.2 mm 2 mps 742 mmHg 92%
04:00 +4°C° 0.2 mm 2 mps 743 mmHg 92%
05:00 +6°C° 0.2 mm 1 mps 743 mmHg 92%
06:00 +6°C° 0.4 mm 1 mps 743 mmHg 90%
07:00 +7°C° 0.4 mm 1 mps 744 mmHg 89%
08:00 +8°C° 0.4 mm 1 mps 744 mmHg 87%
09:00 +8°C° 0 mm 2 mps 744 mmHg 83%
10:00 +9°C° 0 mm 2 mps 745 mmHg 78%
11:00 +10°C° 0 mm 2 mps 745 mmHg 73%
12:00 +12°C° 0.2 mm 2 mps 745 mmHg 68%
13:00 +13°C° 0.2 mm 2 mps 745 mmHg 62%
14:00 +15°C° 0.2 mm 2 mps 746 mmHg 56%
15:00 +14°C° 0.1 mm 2 mps 746 mmHg 57%
16:00 +14°C° 0.1 mm 1 mps 746 mmHg 58%
17:00 +14°C° 0.1 mm 1 mps 747 mmHg 59%
18:00 +13°C° 0 mm 1 mps 747 mmHg 64%
19:00 +12°C° 0 mm 2 mps 747 mmHg 70%
20:00 +10°C° 0 mm 2 mps 748 mmHg 75%
21:00 +9°C° 0 mm 2 mps 748 mmHg 77%
22:00 +9°C° 0 mm 2 mps 748 mmHg 78%
23:00 +10°C° 0 mm 1 mps 749 mmHg 80%

23 April, Friday

Time Temperature Precipitation Wind Pressure Humidity
00:00 +9°C° 0 mm 1 mps 749 mmHg 81%
01:00 +9°C° 0 mm 1 mps 749 mmHg 83%
02:00 +9°C° 0 mm 1 mps 749 mmHg 84%
03:00 +9°C° 0 mm 1 mps 750 mmHg 85%
04:00 +9°C° 0 mm 1 mps 750 mmHg 86%
05:00 +8°C° 0 mm 0 mps 750 mmHg 87%
06:00 +9°C° 0 mm 1 mps 751 mmHg 84%
07:00 +10°C° 0 mm 1 mps 751 mmHg 82%
08:00 +10°C° 0 mm 2 mps 751 mmHg 79%
09:00 +12°C° 0.1 mm 2 mps 752 mmHg 73%
10:00 +13°C° 0.1 mm 3 mps 752 mmHg 66%
11:00 +16°C° 0.1 mm 3 mps 752 mmHg 59%
12:00 +16°C° 0.5 mm 3 mps 752 mmHg 58%
13:00 +17°C° 0.5 mm 3 mps 752 mmHg 56%
14:00 +17°C° 0.5 mm 3 mps 752 mmHg 54%
15:00 +17°C° 0.2 mm 3 mps 753 mmHg 58%
16:00 +17°C° 0.2 mm 3 mps 753 mmHg 61%
17:00 +16°C° 0.2 mm 3 mps 753 mmHg 64%
18:00 +14°C° 0.1 mm 3 mps 754 mmHg 68%
19:00 +12°C° 0.1 mm 3 mps 754 mmHg 73%
20:00 +12°C° 0.1 mm 2 mps 755 mmHg 78%
21:00 +10°C° 0 mm 3 mps 755 mmHg 79%
22:00 +10°C° 0 mm 3 mps 755 mmHg 81%
23:00 +9°C° 0 mm 3 mps 756 mmHg 82%
Show more